SWR1KV LSZH-ESSA

Flight info

Callsign SWR1KV
Flight time 1h 56m
Altitude 34000
Route DEGES Z1 ETAGO DCT TIKNI/N0440F350 DCT ROBEL DCT KENIG DCT VIBIS/N0445F360 DCT ADUKI/N0442F350 Z400 ARGAD DCT OKAGA DCT VIBAR/N0407F270 Z227 NILUG
Aircraft A21N/M-SDE3FGHIRWY/LB1

Departure

Time 2026-05-04 20:57
Airport Zürich Airport (LSZH)

Arrival

Time 2026-05-04 22:53
Airport Stockholm-Arlanda Airport (ESSA)
Time Latitude Longitude Altitude Speed Heading
2026-05-04 20:19 47.45340 8.55751 1383 ft 0 kts
2026-05-04 20:35 47.45333 8.55751 1383 ft 2 kts 353°
2026-05-04 20:35 47.45318 8.55752 1383 ft 2 kts 10°
2026-05-04 20:35 47.45304 8.55748 1383 ft 1 kts
2026-05-04 20:36 47.45290 8.55748 1383 ft 2 kts 344°
2026-05-04 20:36 47.45276 8.55758 1383 ft 2 kts 322°
2026-05-04 20:36 47.45266 8.55774 1383 ft 2 kts 300°
2026-05-04 20:36 47.45261 8.55794 1383 ft 1 kts 278°
2026-05-04 20:37 47.45260 8.55814 1383 ft 2 kts 276°
2026-05-04 20:37 47.45258 8.55836 1383 ft 2 kts 278°
2026-05-04 20:37 47.45256 8.55858 1383 ft 2 kts 277°
2026-05-04 20:37 47.45254 8.55880 1383 ft 2 kts 277°
2026-05-04 20:38 47.45252 8.55902 1383 ft 2 kts 277°
2026-05-04 20:38 47.45251 8.55918 1383 ft 0 kts 277°
2026-05-04 20:42 47.45251 8.55917 1383 ft 0 kts 277°
2026-05-04 20:42 47.45251 8.55914 1383 ft 0 kts 277°
2026-05-04 20:42 47.45253 8.55898 1383 ft 2 kts 277°
2026-05-04 20:43 47.45256 8.55864 1383 ft 3 kts 277°
2026-05-04 20:43 47.45256 8.55852 1383 ft 0 kts 277°
2026-05-04 20:46 47.45257 8.55852 1383 ft 0 kts 277°
2026-05-04 20:46 47.45257 8.55846 1383 ft 0 kts 277°
2026-05-04 20:46 47.45261 8.55796 1383 ft 10 kts 277°
2026-05-04 20:46 47.45271 8.55658 1383 ft 15 kts 276°
2026-05-04 20:47 47.45324 8.55546 1383 ft 14 kts 334°
2026-05-04 20:47 47.45395 8.55498 1383 ft 9 kts 335°
2026-05-04 20:47 47.45415 8.55484 1383 ft 5 kts 335°
2026-05-04 20:47 47.45445 8.55463 1383 ft 0 kts 335°
2026-05-04 20:48 47.45448 8.55461 1383 ft 0 kts 335°
2026-05-04 20:48 47.45487 8.55439 1383 ft 15 kts 358°
2026-05-04 20:48 47.45523 8.55560 1383 ft 14 kts 98°
2026-05-04 20:48 47.45512 8.55706 1383 ft 16 kts 96°
2026-05-04 20:49 47.45499 8.55888 1383 ft 17 kts 96°
2026-05-04 20:49 47.45487 8.56063 1383 ft 17 kts 96°
2026-05-04 20:49 47.45484 8.56219 1383 ft 13 kts 51°
2026-05-04 20:49 47.45555 8.56254 1383 ft 9 kts
2026-05-04 20:50 47.45622 8.56264 1383 ft 9 kts
2026-05-04 20:50 47.45700 8.56275 1380 ft 12 kts
2026-05-04 20:50 47.45796 8.56291 1383 ft 13 kts
2026-05-04 20:50 47.45886 8.56305 1383 ft 12 kts
2026-05-04 20:51 47.45950 8.56314 1383 ft 0 kts
2026-05-04 20:51 47.45953 8.56315 1383 ft 0 kts
2026-05-04 20:52 47.45959 8.56316 1383 ft 8 kts
2026-05-04 20:52 47.46010 8.56324 1384 ft 1 kts
2026-05-04 20:52 47.46008 8.56324 1384 ft 0 kts
2026-05-04 20:54 47.46084 8.56356 1392 ft 22 kts 43°
2026-05-04 20:54 47.46164 8.56403 1401 ft 4 kts 318°
2026-05-04 20:55 47.46166 8.56401 1401 ft 0 kts 320°
2026-05-04 20:56 47.46169 8.56397 1401 ft 3 kts 320°
2026-05-04 20:56 47.46334 8.56164 1396 ft 71 kts 317°
2026-05-04 20:56 47.46876 8.55421 1385 ft 138 kts 316°
2026-05-04 20:56 47.47691 8.54308 1515 ft 175 kts 318°
2026-05-04 20:57 47.48623 8.53080 2024 ft 186 kts 322°
2026-05-04 20:57 47.49716 8.51954 2584 ft 200 kts 328°
2026-05-04 20:57 47.50921 8.50790 3127 ft 216 kts 327°
2026-05-04 20:57 47.52150 8.49436 3694 ft 227 kts 314°
2026-05-04 20:58 47.53001 8.47387 4051 ft 244 kts 291°
2026-05-04 20:58 47.53467 8.44970 4702 ft 248 kts 274°
2026-05-04 20:58 47.53190 8.42474 5441 ft 248 kts 248°
2026-05-04 20:58 47.52455 8.40183 6192 ft 247 kts 242°
2026-05-04 20:59 47.51528 8.38086 6831 ft 250 kts 221°
2026-05-04 20:59 47.49994 8.36941 7460 ft 253 kts 189°
2026-05-04 20:59 47.48254 8.37235 8050 ft 258 kts 156°
2026-05-04 20:59 47.46885 8.38908 8666 ft 263 kts 124°
2026-05-04 21:00 47.46122 8.41385 9326 ft 265 kts 110°
2026-05-04 21:00 47.45739 8.44026 9868 ft 272 kts 97°
2026-05-04 21:00 47.45677 8.46915 10172 ft 288 kts 92°
2026-05-04 21:00 47.45689 8.49975 10454 ft 304 kts 92°
2026-05-04 21:01 47.45702 8.53127 10737 ft 318 kts 92°
2026-05-04 21:01 47.45775 8.56472 10997 ft 333 kts 90°
2026-05-04 21:01 47.45901 8.59969 11243 ft 347 kts 89°
2026-05-04 21:01 47.46035 8.63496 11487 ft 360 kts 90°
2026-05-04 21:02 47.46174 8.67309 11737 ft 372 kts 89°
2026-05-04 21:02 47.46318 8.71187 11965 ft 384 kts 90°
2026-05-04 21:02 47.46467 8.75208 12166 ft 396 kts 89°
2026-05-04 21:02 47.46558 8.79287 12426 ft 404 kts 93°
2026-05-04 21:03 47.46401 8.83425 12881 ft 405 kts 98°
2026-05-04 21:03 47.45971 8.87558 13289 ft 408 kts 103°
2026-05-04 21:03 47.45390 8.91698 13728 ft 411 kts 104°
2026-05-04 21:03 47.44789 8.95796 14134 ft 415 kts 104°
2026-05-04 21:04 47.44183 8.99974 14521 ft 419 kts 104°
2026-05-04 21:04 47.43570 9.04235 14943 ft 421 kts 104°
2026-05-04 21:04 47.42960 9.08454 15272 ft 426 kts 104°
2026-05-04 21:04 47.42342 9.12710 15647 ft 429 kts 104°
2026-05-04 21:05 47.41895 9.17086 16000 ft 435 kts 93°
2026-05-04 21:05 47.42213 9.21584 16354 ft 441 kts 77°
2026-05-04 21:05 47.43329 9.25820 16681 ft 447 kts 62°
2026-05-04 21:05 47.44863 9.29796 17050 ft 449 kts 60°
2026-05-04 21:06 47.46455 9.33766 17335 ft 453 kts 59°
2026-05-04 21:06 47.48268 9.37575 17652 ft 456 kts 47°
2026-05-04 21:06 47.50650 9.40637 17963 ft 458 kts 32°
2026-05-04 21:06 47.53516 9.42715 18304 ft 457 kts 18°
2026-05-04 21:07 47.56551 9.44097 18646 ft 458 kts 12°
2026-05-04 21:07 47.59638 9.44997 18905 ft 460 kts
2026-05-04 21:07 47.62809 9.45458 19209 ft 460 kts
2026-05-04 21:07 47.66032 9.45645 19484 ft 463 kts 360°
2026-05-04 21:08 47.68778 9.46096 19676 ft 468 kts
2026-05-04 21:08 47.72167 9.47429 20039 ft 469 kts 15°
2026-05-04 21:08 47.75281 9.48888 20327 ft 471 kts 16°
2026-05-04 21:08 47.78408 9.50353 20545 ft 474 kts 15°
2026-05-04 21:09 47.81534 9.51781 20818 ft 475 kts 15°
2026-05-04 21:09 47.84714 9.53191 21123 ft 476 kts 14°
2026-05-04 21:09 47.87911 9.54583 21373 ft 478 kts 14°
2026-05-04 21:09 47.91098 9.55955 21570 ft 480 kts 14°
2026-05-04 21:10 47.94269 9.57315 21823 ft 481 kts 14°
2026-05-04 21:10 47.97516 9.58702 22072 ft 483 kts 14°
2026-05-04 21:10 48.00735 9.60080 22295 ft 484 kts 14°
2026-05-04 21:10 48.03944 9.61451 22503 ft 486 kts 14°
2026-05-04 21:11 48.07259 9.62864 22705 ft 488 kts 14°
2026-05-04 21:11 48.10498 9.64250 22915 ft 489 kts 14°
2026-05-04 21:11 48.13790 9.65661 23138 ft 490 kts 15°
2026-05-04 21:11 48.17085 9.67071 23305 ft 492 kts 15°
2026-05-04 21:12 48.20366 9.68479 23480 ft 494 kts 15°
2026-05-04 21:12 48.23685 9.69906 23667 ft 495 kts 15°
2026-05-04 21:12 48.26976 9.71323 23847 ft 496 kts 15°
2026-05-04 21:12 48.30270 9.72745 24000 ft 498 kts 15°
2026-05-04 21:13 48.33604 9.74186 24182 ft 498 kts 15°
2026-05-04 21:13 48.36916 9.75618 24309 ft 500 kts 15°
2026-05-04 21:13 48.40271 9.77071 24457 ft 501 kts 15°
2026-05-04 21:13 48.43620 9.78518 24605 ft 502 kts 15°
2026-05-04 21:14 48.46957 9.79965 24732 ft 504 kts 15°
2026-05-04 21:14 48.50309 9.81420 24887 ft 504 kts 15°
2026-05-04 21:14 48.53681 9.82889 25003 ft 505 kts 15°
2026-05-04 21:14 48.57079 9.84371 25109 ft 507 kts 15°
2026-05-04 21:15 48.60443 9.85838 25214 ft 508 kts 15°
2026-05-04 21:15 48.63821 9.87314 25331 ft 509 kts 15°
2026-05-04 21:15 48.67238 9.88808 25434 ft 510 kts 15°
2026-05-04 21:15 48.70623 9.90292 25566 ft 510 kts 15°
2026-05-04 21:16 48.74048 9.91797 25661 ft 511 kts 15°
2026-05-04 21:16 48.77430 9.93283 25759 ft 512 kts 15°
2026-05-04 21:16 48.80850 9.94789 25854 ft 513 kts 15°
2026-05-04 21:16 48.84278 9.96302 25925 ft 514 kts 15°
2026-05-04 21:17 48.87717 9.97819 26040 ft 514 kts 15°
2026-05-04 21:17 48.91110 9.99321 26127 ft 514 kts 15°
2026-05-04 21:17 48.94582 10.00858 26205 ft 515 kts 14°
2026-05-04 21:17 48.98003 10.02378 26390 ft 513 kts 15°
2026-05-04 21:18 49.01399 10.03886 26653 ft 509 kts 14°
2026-05-04 21:18 49.04791 10.05395 26858 ft 508 kts 14°
2026-05-04 21:18 49.08174 10.06895 26879 ft 510 kts 14°
2026-05-04 21:18 49.11551 10.08398 26961 ft 511 kts 15°
2026-05-04 21:19 49.14976 10.09928 27065 ft 511 kts 14°
2026-05-04 21:19 49.18364 10.11441 27172 ft 511 kts 14°
2026-05-04 21:19 49.21791 10.12974 27283 ft 511 kts 14°
2026-05-04 21:19 49.25209 10.14504 27400 ft 510 kts 14°
2026-05-04 21:20 49.28563 10.16010 27554 ft 509 kts 14°
2026-05-04 21:20 49.31972 10.17544 27930 ft 503 kts 14°
2026-05-04 21:20 49.35318 10.19052 28174 ft 502 kts 14°
2026-05-04 21:20 49.38650 10.20554 28289 ft 503 kts 14°
2026-05-04 21:21 49.45314 10.23563 28481 ft 505 kts 14°
2026-05-04 21:21 49.52083 10.26630 28683 ft 507 kts 14°
2026-05-04 21:22 49.58804 10.29684 28866 ft 509 kts 14°
2026-05-04 21:22 49.62213 10.31236 28979 ft 510 kts 14°
2026-05-04 21:22 49.65618 10.32789 29124 ft 510 kts 14°
2026-05-04 21:23 49.69014 10.34342 29274 ft 510 kts 14°
2026-05-04 21:23 49.72398 10.35890 29429 ft 510 kts 14°
2026-05-04 21:23 49.75790 10.37444 29588 ft 509 kts 14°
2026-05-04 21:23 49.79173 10.38997 29727 ft 509 kts 14°
2026-05-04 21:24 49.82541 10.40545 29849 ft 509 kts 14°
2026-05-04 21:24 49.85931 10.42105 29984 ft 509 kts 14°
2026-05-04 21:24 49.89329 10.43670 30127 ft 508 kts 14°
2026-05-04 21:24 49.92696 10.45223 30286 ft 507 kts 14°
2026-05-04 21:25 49.96029 10.46766 30742 ft 500 kts 14°
2026-05-04 21:25 49.99310 10.48289 31380 ft 489 kts 13°
2026-05-04 21:25 50.02523 10.49786 32081 ft 477 kts 13°
2026-05-04 21:25 50.05661 10.51248 32613 ft 470 kts 13°
2026-05-04 21:26 50.08781 10.52696 32824 ft 471 kts 13°
2026-05-04 21:26 50.11907 10.54146 32934 ft 474 kts 13°
2026-05-04 21:26 50.15073 10.55617 33097 ft 475 kts 13°
2026-05-04 21:26 50.18262 10.57103 33292 ft 476 kts 13°
2026-05-04 21:27 50.21423 10.58579 33476 ft 477 kts 13°
2026-05-04 21:27 50.24574 10.60052 33663 ft 477 kts 13°
2026-05-04 21:27 50.27765 10.61548 33840 ft 478 kts 13°
2026-05-04 21:27 50.30967 10.63050 33971 ft 479 kts 13°
2026-05-04 21:28 50.37305 10.66029 33984 ft 480 kts 13°
2026-05-04 21:28 50.43683 10.69037 33995 ft 480 kts 13°
2026-05-04 21:29 50.50076 10.72062 34000 ft 480 kts 13°
2026-05-04 21:29 50.56455 10.75088 34002 ft 480 kts 13°
2026-05-04 21:30 50.62834 10.78121 34003 ft 480 kts 13°
2026-05-04 21:30 50.69178 10.81147 34003 ft 480 kts 13°
2026-05-04 21:31 50.78789 10.85748 34003 ft 480 kts 13°
2026-05-04 21:32 50.85164 10.88811 34003 ft 480 kts 13°
2026-05-04 21:32 50.91580 10.91901 34003 ft 480 kts 13°
2026-05-04 21:33 50.97915 10.94963 34003 ft 481 kts 13°
2026-05-04 21:33 51.04326 10.98069 34003 ft 481 kts 13°
2026-05-04 21:34 51.10715 11.01176 34002 ft 481 kts 13°
2026-05-04 21:34 51.17114 11.04295 34003 ft 481 kts 13°
2026-05-04 21:35 51.23495 11.07415 34003 ft 482 kts 13°
2026-05-04 21:35 51.29874 11.10541 34003 ft 482 kts 13°
2026-05-04 21:36 51.36279 11.13693 34003 ft 482 kts 13°
2026-05-04 21:36 51.42660 11.16840 34003 ft 482 kts 13°
2026-05-04 21:37 51.49073 11.20013 34005 ft 482 kts 13°
2026-05-04 21:37 51.55453 11.23181 34008 ft 483 kts 13°
2026-05-04 21:38 51.61846 11.26582 34009 ft 485 kts 17°
2026-05-04 21:38 51.68016 11.30983 33994 ft 488 kts 21°
2026-05-04 21:39 51.74128 11.35726 33983 ft 488 kts 22°
2026-05-04 21:39 51.80226 11.40467 33978 ft 488 kts 21°
2026-05-04 21:40 51.86304 11.45184 33976 ft 489 kts 21°
2026-05-04 21:40 51.92429 11.49942 33976 ft 489 kts 21°
2026-05-04 21:41 51.98569 11.54722 33976 ft 489 kts 21°
2026-05-04 21:41 52.04669 11.59489 33976 ft 489 kts 21°
2026-05-04 21:42 52.10771 11.64267 33975 ft 489 kts 21°
2026-05-04 21:42 52.16906 11.69085 33975 ft 490 kts 22°
2026-05-04 21:43 52.23048 11.73927 33976 ft 490 kts 22°
2026-05-04 21:43 52.29131 11.78736 33976 ft 490 kts 22°
2026-05-04 21:44 52.35272 11.83606 33976 ft 490 kts 22°
2026-05-04 21:44 52.41369 11.88458 33977 ft 489 kts 22°
2026-05-04 21:45 52.47462 11.93320 33976 ft 489 kts 22°
2026-05-04 21:45 52.53590 11.98227 33976 ft 489 kts 21°
2026-05-04 21:46 52.59718 12.03147 33977 ft 488 kts 21°
2026-05-04 21:46 52.65860 12.08097 33976 ft 488 kts 21°
2026-05-04 21:47 52.71980 12.13043 33977 ft 487 kts 21°
2026-05-04 21:47 52.78032 12.17949 33976 ft 487 kts 21°
2026-05-04 21:48 52.84070 12.22860 33977 ft 486 kts 21°
2026-05-04 21:48 52.90152 12.27823 33976 ft 486 kts 21°
2026-05-04 21:49 52.96168 12.32748 33976 ft 486 kts 21°
2026-05-04 21:49 53.02294 12.37396 33976 ft 483 kts 18°
2026-05-04 21:50 53.08447 12.41878 33976 ft 483 kts 18°
2026-05-04 21:50 53.14597 12.46381 33976 ft 482 kts 18°
2026-05-04 21:51 53.20708 12.50884 33977 ft 482 kts 18°
2026-05-04 21:51 53.26796 12.55387 33977 ft 482 kts 18°
2026-05-04 21:52 53.32949 12.59957 33977 ft 482 kts 18°
2026-05-04 21:52 53.39056 12.64507 33977 ft 481 kts 18°
2026-05-04 21:53 53.45160 12.69066 33975 ft 482 kts 18°
2026-05-04 21:53 53.51263 12.73641 33976 ft 483 kts 18°
2026-05-04 21:54 53.57380 12.78242 33976 ft 483 kts 18°
2026-05-04 21:54 53.63464 12.82834 33976 ft 483 kts 18°
2026-05-04 21:55 53.69634 12.87505 33976 ft 483 kts 18°
2026-05-04 21:55 53.75731 12.92133 33976 ft 483 kts 19°
2026-05-04 21:56 53.81850 12.96795 33976 ft 484 kts 19°
2026-05-04 21:56 53.87941 13.01451 33976 ft 484 kts 19°
2026-05-04 21:57 53.94064 13.06145 33976 ft 484 kts 19°
2026-05-04 21:57 54.00203 13.10868 33976 ft 484 kts 19°
2026-05-04 21:58 54.06284 13.15561 33977 ft 481 kts 19°
2026-05-04 21:58 54.12367 13.20272 33976 ft 481 kts 19°
2026-05-04 21:59 54.18424 13.24978 33976 ft 481 kts 19°
2026-05-04 21:59 54.24501 13.29717 33976 ft 481 kts 19°
2026-05-04 22:00 54.30547 13.34448 33977 ft 481 kts 19°
2026-05-04 22:00 54.36636 13.39123 33977 ft 480 kts 18°
2026-05-04 22:01 54.42731 13.43672 33977 ft 480 kts 18°
2026-05-04 22:01 54.48843 13.48270 33976 ft 480 kts 18°
2026-05-04 22:02 54.55016 13.52499 33977 ft 477 kts 15°
2026-05-04 22:02 54.61219 13.56480 33976 ft 477 kts 14°
2026-05-04 22:03 54.67376 13.60452 33971 ft 476 kts 15°
2026-05-04 22:03 54.73626 13.64514 33964 ft 484 kts 15°
2026-05-04 22:04 54.79932 13.68637 33956 ft 487 kts 16°
2026-05-04 22:04 54.86247 13.72785 33952 ft 487 kts 16°
2026-05-04 22:05 54.92489 13.77196 33950 ft 489 kts 21°
2026-05-04 22:05 54.98543 13.82540 33951 ft 489 kts 24°
2026-05-04 22:06 55.04555 13.88093 33951 ft 488 kts 24°
2026-05-04 22:06 55.10516 13.93605 33950 ft 487 kts 24°
2026-05-04 22:07 55.16493 13.99133 33951 ft 486 kts 24°
2026-05-04 22:07 55.22449 14.04651 33950 ft 486 kts 24°
2026-05-04 22:08 55.28387 14.10171 33950 ft 485 kts 24°
2026-05-04 22:08 55.34319 14.15704 33950 ft 484 kts 24°
2026-05-04 22:09 55.40235 14.21239 33950 ft 483 kts 24°
2026-05-04 22:09 55.46148 14.26793 33950 ft 483 kts 24°
2026-05-04 22:10 55.52046 14.32348 33950 ft 482 kts 24°
2026-05-04 22:10 55.57950 14.37930 33950 ft 482 kts 24°
2026-05-04 22:11 55.63809 14.43490 33950 ft 482 kts 24°
2026-05-04 22:11 55.69710 14.49107 33950 ft 481 kts 24°
2026-05-04 22:12 55.75585 14.54717 33949 ft 482 kts 24°
2026-05-04 22:12 55.81482 14.60370 33950 ft 482 kts 24°
2026-05-04 22:13 55.87373 14.66038 33948 ft 482 kts 25°
2026-05-04 22:13 55.93241 14.71700 33949 ft 483 kts 25°
2026-05-04 22:14 55.99134 14.77408 33950 ft 484 kts 25°
2026-05-04 22:14 56.05043 14.83155 33950 ft 483 kts 24°
2026-05-04 22:15 56.10932 14.88898 33950 ft 483 kts 24°
2026-05-04 22:15 56.16801 14.94640 33948 ft 484 kts 24°
2026-05-04 22:16 56.22701 15.00435 33944 ft 485 kts 24°
2026-05-04 22:16 56.28612 15.06263 33939 ft 486 kts 24°
2026-05-04 22:17 56.34491 15.12077 33931 ft 486 kts 24°
2026-05-04 22:17 56.40415 15.17958 33924 ft 487 kts 24°
2026-05-04 22:18 56.46342 15.23863 33914 ft 487 kts 24°
2026-05-04 22:18 56.52256 15.29777 33910 ft 488 kts 24°
2026-05-04 22:19 56.58151 15.35693 33915 ft 488 kts 24°
2026-05-04 22:19 56.64087 15.41672 33918 ft 488 kts 24°
2026-05-04 22:20 56.69997 15.47646 33919 ft 488 kts 24°
2026-05-04 22:20 56.75905 15.53637 33920 ft 488 kts 24°
2026-05-04 22:21 56.81785 15.59627 33919 ft 488 kts 24°
2026-05-04 22:21 56.87727 15.65699 33916 ft 488 kts 25°
2026-05-04 22:22 56.93619 15.71741 33910 ft 489 kts 24°
2026-05-04 22:22 56.99534 15.77829 33903 ft 489 kts 24°
2026-05-04 22:23 57.05412 15.83903 33898 ft 488 kts 24°
2026-05-04 22:23 57.11328 15.90039 33896 ft 489 kts 24°
2026-05-04 22:24 57.17221 15.96172 33895 ft 488 kts 24°
2026-05-04 22:24 57.23090 16.02305 33895 ft 488 kts 24°
2026-05-04 22:25 57.29001 16.08501 33895 ft 489 kts 24°
2026-05-04 22:25 57.34894 16.14705 33895 ft 488 kts 24°
2026-05-04 22:26 57.40778 16.20922 33895 ft 488 kts 24°
2026-05-04 22:26 57.46648 16.27146 33895 ft 488 kts 24°
2026-05-04 22:27 57.52494 16.33372 33866 ft 489 kts 24°
2026-05-04 22:27 57.55459 16.36537 33615 ft 489 kts 24°
2026-05-04 22:27 57.58409 16.39704 33365 ft 489 kts 25°
2026-05-04 22:27 57.61320 16.42995 33114 ft 490 kts 26°
2026-05-04 22:28 57.64202 16.46354 32864 ft 491 kts 26°
2026-05-04 22:28 57.67080 16.49733 32615 ft 491 kts 26°
2026-05-04 22:28 57.69948 16.53104 32366 ft 491 kts 26°
2026-05-04 22:28 57.72857 16.56521 32114 ft 492 kts 26°
2026-05-04 22:29 57.75734 16.59899 31866 ft 492 kts 26°
2026-05-04 22:29 57.78635 16.63306 31614 ft 493 kts 26°
2026-05-04 22:29 57.81509 16.66685 31364 ft 494 kts 27°
2026-05-04 22:29 57.84467 16.70168 31110 ft 494 kts 27°
2026-05-04 22:30 57.87391 16.73617 30858 ft 495 kts 27°
2026-05-04 22:30 57.90297 16.77051 30609 ft 495 kts 27°
2026-05-04 22:30 57.93230 16.80527 30358 ft 496 kts 27°
2026-05-04 22:30 57.96209 16.84060 30102 ft 496 kts 27°
2026-05-04 22:31 57.99112 16.87512 29853 ft 496 kts 27°
2026-05-04 22:31 58.02031 16.90995 29601 ft 497 kts 27°
2026-05-04 22:31 58.04982 16.94517 29347 ft 499 kts 27°
2026-05-04 22:31 58.07890 16.97987 29099 ft 500 kts 27°
2026-05-04 22:32 58.10861 17.01543 28845 ft 501 kts 27°
2026-05-04 22:32 58.13794 17.05062 28596 ft 502 kts 27°
2026-05-04 22:32 58.16743 17.08606 28345 ft 503 kts 27°
2026-05-04 22:32 58.19696 17.12163 28094 ft 503 kts 27°
2026-05-04 22:33 58.22606 17.15677 27847 ft 503 kts 27°
2026-05-04 22:33 58.25566 17.19258 27597 ft 504 kts 27°
2026-05-04 22:33 58.28503 17.22820 27348 ft 505 kts 27°
2026-05-04 22:33 58.31457 17.26410 27098 ft 505 kts 27°
2026-05-04 22:34 58.34430 17.30027 26846 ft 506 kts 27°
2026-05-04 22:34 58.37389 17.33636 26596 ft 507 kts 27°
2026-05-04 22:34 58.40319 17.37218 26348 ft 507 kts 27°
2026-05-04 22:34 58.43286 17.40854 26097 ft 508 kts 27°
2026-05-04 22:35 58.46234 17.44473 25849 ft 509 kts 27°
2026-05-04 22:35 58.49209 17.48131 25598 ft 510 kts 27°
2026-05-04 22:35 58.52206 17.51823 25345 ft 511 kts 27°
2026-05-04 22:35 58.55181 17.55497 25095 ft 512 kts 27°
2026-05-04 22:36 58.58159 17.59183 24845 ft 512 kts 27°
2026-05-04 22:36 58.61148 17.62893 24594 ft 513 kts 27°
2026-05-04 22:36 58.64149 17.66623 24341 ft 514 kts 28°
2026-05-04 22:36 58.67142 17.70349 24091 ft 516 kts 28°
2026-05-04 22:37 58.70143 17.74096 23836 ft 517 kts 28°
2026-05-04 22:37 58.73147 17.77854 23522 ft 518 kts 28°
2026-05-04 22:37 58.76159 17.81634 23124 ft 519 kts 28°
2026-05-04 22:37 58.79192 17.85417 22610 ft 514 kts 26°
2026-05-04 22:38 58.82291 17.88453 22065 ft 501 kts 16°
2026-05-04 22:38 58.85582 17.90473 21498 ft 491 kts
2026-05-04 22:38 58.88851 17.91995 20944 ft 486 kts
2026-05-04 22:38 58.92147 17.93423 20382 ft 482 kts
2026-05-04 22:39 58.95383 17.94822 19830 ft 479 kts
2026-05-04 22:39 58.98598 17.96235 19287 ft 475 kts
2026-05-04 22:39 59.01819 17.97671 18740 ft 472 kts
2026-05-04 22:39 59.05000 17.99106 18191 ft 469 kts
2026-05-04 22:40 59.08126 18.00528 17654 ft 466 kts
2026-05-04 22:40 59.11277 18.01961 17095 ft 463 kts
2026-05-04 22:40 59.14386 18.03385 16554 ft 459 kts
2026-05-04 22:40 59.17475 18.04806 16026 ft 455 kts
2026-05-04 22:41 59.20549 18.06223 15507 ft 451 kts
2026-05-04 22:41 59.23562 18.07615 14992 ft 447 kts
2026-05-04 22:41 59.26540 18.08992 14483 ft 442 kts
2026-05-04 22:41 59.29533 18.10379 13963 ft 438 kts
2026-05-04 22:42 59.32465 18.11739 13446 ft 434 kts
2026-05-04 22:42 59.35382 18.13096 12926 ft 431 kts
2026-05-04 22:42 59.38256 18.14434 12413 ft 426 kts
2026-05-04 22:42 59.41116 18.15766 11898 ft 422 kts
2026-05-04 22:43 59.43964 18.17098 11374 ft 419 kts
2026-05-04 22:43 59.46773 18.18418 10853 ft 416 kts
2026-05-04 22:43 59.49576 18.19729 10293 ft 413 kts
2026-05-04 22:43 59.52364 18.20761 9971 ft 408 kts
2026-05-04 22:44 59.55162 18.21534 9792 ft 404 kts
2026-05-04 22:44 59.57911 18.22244 9536 ft 390 kts
2026-05-04 22:44 59.60556 18.22921 9066 ft 383 kts
2026-05-04 22:44 59.63185 18.23604 8597 ft 377 kts
2026-05-04 22:45 59.65738 18.24277 8214 ft 368 kts
2026-05-04 22:45 59.70691 18.25411 7365 ft 353 kts 357°
2026-05-04 22:45 59.73097 18.25206 6991 ft 343 kts 351°
2026-05-04 22:46 59.75449 18.24738 6624 ft 335 kts 349°
2026-05-04 22:46 59.77751 18.24236 6209 ft 330 kts 349°
2026-05-04 22:46 59.79998 18.23757 5858 ft 323 kts 349°
2026-05-04 22:46 59.82199 18.23301 5527 ft 316 kts 349°
2026-05-04 22:47 59.84216 18.22357 5309 ft 284 kts 327°
2026-05-04 22:47 59.85581 18.19883 4961 ft 255 kts 294°
2026-05-04 22:47 59.86176 18.16682 4657 ft 243 kts 282°
2026-05-04 22:47 59.86633 18.13487 4368 ft 243 kts 284°
2026-05-04 22:48 59.87165 18.10312 4109 ft 238 kts 285°
2026-05-04 22:48 59.87454 18.07170 3788 ft 231 kts 261°
2026-05-04 22:48 59.86881 18.04253 3506 ft 224 kts 232°
2026-05-04 22:48 59.85743 18.02214 3239 ft 221 kts 220°
2026-05-04 22:49 59.84558 18.00303 3020 ft 214 kts 219°
2026-05-04 22:49 59.83307 17.98856 2986 ft 204 kts 204°
2026-05-04 22:49 59.81999 17.98040 2980 ft 190 kts 197°
2026-05-04 22:49 59.80768 17.97500 2910 ft 178 kts 195°
2026-05-04 22:50 59.79565 17.97048 2678 ft 176 kts 194°
2026-05-04 22:50 59.78357 17.96614 2482 ft 174 kts 193°
2026-05-04 22:50 59.77156 17.96183 2301 ft 176 kts 193°
2026-05-04 22:50 59.75963 17.95746 2052 ft 174 kts 193°
2026-05-04 22:51 59.74793 17.95329 1780 ft 168 kts 193°
2026-05-04 22:51 59.73698 17.94938 1561 ft 154 kts 192°
2026-05-04 22:51 59.72689 17.94571 1328 ft 144 kts 192°
2026-05-04 22:51 59.71715 17.94211 1156 ft 139 kts 192°
2026-05-04 22:52 59.70774 17.93869 984 ft 137 kts 192°
2026-05-04 22:52 59.69839 17.93533 812 ft 136 kts 192°
2026-05-04 22:52 59.68897 17.93194 630 ft 136 kts 192°
2026-05-04 22:52 59.67969 17.92860 454 ft 136 kts 192°
2026-05-04 22:53 59.67072 17.92536 272 ft 135 kts 192°
2026-05-04 22:53 59.66158 17.92210 146 ft 130 kts 193°
2026-05-04 22:53 59.65412 17.91930 146 ft 85 kts 189°
2026-05-04 22:53 59.64988 17.91776 146 ft 49 kts 189°
2026-05-04 22:54 59.64623 17.91740 146 ft 48 kts 167°
2026-05-04 22:54 59.64471 17.91850 146 ft 13 kts 138°
2026-05-04 22:54 59.64470 17.91953 146 ft 6 kts 19°
2026-05-04 22:54 59.64517 17.91978 146 ft 7 kts 11°
2026-05-04 22:55 59.64537 17.91984 146 ft 0 kts
2026-05-04 22:55 59.64544 17.91986 146 ft 1 kts
2026-05-04 22:55 59.64558 17.91990 146 ft 2 kts
2026-05-04 22:55 59.64578 17.91996 146 ft 3 kts
2026-05-04 22:56 59.64603 17.92003 146 ft 4 kts
2026-05-04 22:56 59.64634 17.92013 146 ft 4 kts
2026-05-04 22:56 59.64638 17.92014 146 ft 0 kts
2026-05-04 22:56 59.64694 17.92038 146 ft 21 kts 11°
2026-05-04 22:57 59.64839 17.92090 146 ft 20 kts 10°
2026-05-04 22:57 59.64975 17.92137 146 ft 18 kts 10°
2026-05-04 22:57 59.65099 17.92182 146 ft 17 kts 10°
2026-05-04 22:57 59.65220 17.92224 146 ft 17 kts
2026-05-04 22:58 59.65301 17.92341 146 ft 14 kts 94°
2026-05-04 22:58 59.65270 17.92531 146 ft 14 kts 110°
2026-05-04 22:58 59.65238 17.92716 146 ft 14 kts 108°
2026-05-04 22:58 59.65221 17.92876 146 ft 7 kts 76°
2026-05-04 22:59 59.65236 17.92958 146 ft 4 kts 70°
2026-05-04 22:59 59.65241 17.92985 146 ft 0 kts 70°
2026-05-04 22:59 59.65241 17.92986 146 ft 0 kts 70°